Location: Lane
(33.5226°N, 79.8788°W)
Time: 04:51:29
(UTC+00:00)

Vanguard 2 - Pass Details

Date: 06 October 2022
Orbit: 553 x 2933 km, 32.9° (Epoch: 26 November)

Event Time Altitude Azimuth Distance (km) Brightness Sun altitude
Rises 15:34:19 0° 219° (SW) 3,615 11.1 45.4°
Reaches altitude 10° 15:36:40 10° 211° (SSW) 2,909 10.9 45.6°
Maximum altitude 15:43:24 40° 144° (SE) 2,075 12.5 46.4°
Drops below altitude 10° 15:54:09 10° 81° (E) 4,633 11.8 47.5°
Sets 15:58:56 0° 76° (ENE) 6,009 12.2 47.9°
